Flag for Germany Weather past 2 weeks in Görlitz, Saxony, Germany

Now
64 °F

Partly sunny.


Feels Like: 64 °F
Forecast: 50 / 67 °F
Wind: 3 mph from Northwest

Location: Goerlitz

Current Time: Sep 4, 2015 at 6:57:42 PM

Latest Report: Sep 4, 2015 at 6:00 PM


Visibility: 44 mi

Pressure: 29.91 "Hg

Humidity: 57%

Dew point: 49 °F

Location of GörlitzLocation

Historic Weather in Görlitz — Graph

°F

Görlitz temperature yesterday

Maximum temperature yesterday: 73 °F (at 3:00 PM)
Minimum temperature yesterday: 52 °F (at 2:00 AM)
Average temperature yesterday: 61 °F

Past Weeks' High & Low Weather Summary

 TemperatureHumidityPressure
High94 °F (Aug 31, 3:00 PM)99% (Aug 29, 2:00 AM)30.31 "Hg (Aug 29, 2:00 AM)
Low49 °F (Aug 21, 6:00 AM)25% (Aug 21, 4:00 PM)29.66 "Hg (Sep 1, 5:00 PM)
Average68 °F63%30.01 "Hg
* Reported Aug 20 5:00 PM — Sep 4 5:00 PM, Görlitz, Weather by CustomWeather, © 2015

Note: Actual official high and low records may vary slightly from our data, if they occured in-between our weather recording intervals... More about our weather records

Advertising

Görlitz weather history for previous 24 hours

 ConditionsComfort  
Time TempWeatherWind HumidityBarometerVisibility
5:00 PM
Fri, Sep 4
66 °FScattered clouds.3 mph53%29.91 "Hg43 mi
4:00 PM69 °FPartly sunny.5 mph44%29.92 "Hg40 mi
3:00 PM67 °FPassing clouds.5 mph47%29.94 "Hg37 mi
2:00 PM64 °FOvercast.2 mph60%29.96 "Hg37 mi
1:00 PM63 °FOvercast.2 mph66%29.96 "Hg16 mi
12:00 PM62 °FOvercast.2 mph76%29.97 "Hg14 mi
11:00 AM61 °FOvercast.2 mph77%29.97 "Hg7 mi
10:00 AM58 °FOvercast.1 mph85%29.96 "Hg6 mi
9:00 AM55 °FFog.3 mph94%29.97 "Hg4 mi
8:00 AM54 °FFog.2 mph97%29.96 "Hg3 mi
7:00 AM53 °FFog.1 mph98%29.95 "Hg7 mi
5:00 AM55 °FFog.1 mph97%29.94 "Hg4 mi
4:00 AM55 °FFog.1 mph96%29.94 "Hg3 mi
3:00 AM56 °FFog.1 mph95%29.94 "Hg2 mi
2:00 AM56 °FFog.1 mph97%29.94 "Hg4 mi
1:00 AM56 °FOvercast.1 mph95%29.94 "Hg6 mi
11:00 PM
Thu, Sep 3
56 °FLight rain. Low clouds.1 mph94%29.95 "Hg9 mi
10:00 PM57 °FOvercast.1 mph94%29.95 "Hg6 mi
9:00 PM57 °FLight rain. Overcast.2 mph88%29.96 "Hg7 mi
8:00 PM62 °FOvercast.5 mph68%29.93 "Hg12 mi
7:00 PM65 °FOvercast.5 mph69%29.91 "Hg19 mi
6:00 PM67 °FOvercast.5 mph61%29.90 "Hg25 mi
Weather by CustomWeather, © 2015

See weather overviewHow to use our weather pages